Location: Newark
(48.5667°N, 3.3000°E)
Time: 02:38:26
(UTC+00:00)

N. Korean satellite - Pass Details

Date: 30 October 2019
Orbit: 456 x 506 km, 97.2° (Epoch: 20 November)

Event Time Altitude Azimuth Distance (km) Brightness Sun altitude
Rises 17:25:49 0° 192° (SSW) 2,482 10.5 -9.6°
Reaches altitude 10° 17:28:02 10° 204° (SSW) 1,619 9.7 -9.9°
Maximum altitude 17:31:04 28° 265° (W) 924 9.0 -10.4°
Drops below altitude 10° 17:34:10 10° 325° (NW) 1,655 9.6 -10.9°
Sets 17:36:28 0° 338° (NNW) 2,549 10.4 -11.3°
